When you browse on this site, cookies collect data to enhance your experience and personalize the content and advertising you see.
Visit our Privacy Policy to learn more. By continuing to use the site, you agree to this use of cookies and data.
  • In United Kingdom
  • List of Countries
  • For 7 days
  • Water Temperature
  • Satellite Maps
  • Weather Map
  • Weather Widgets
  • user-avatar
    Login

    Hourly Weather Okoyo

    Today, 27 June, Thursday

    Time Temperature Precipitation Wind Pressure Humidity
    00:00 +28°C° 0 mm 2 mps 725 mmHg 59%
    01:00 +27°C° 0 mm 3 mps 725 mmHg 62%
    02:00 +27°C° 0 mm 2 mps 725 mmHg 64%
    03:00 +26°C° 0 mm 2 mps 725 mmHg 67%
    04:00 +25°C° 0 mm 2 mps 725 mmHg 69%
    05:00 +25°C° 0 mm 2 mps 725 mmHg 69%
    06:00 +25°C° 0 mm 2 mps 725 mmHg 70%
    07:00 +25°C° 0 mm 2 mps 726 mmHg 70%
    08:00 +27°C° 0 mm 2 mps 726 mmHg 62%
    09:00 +29°C° 0 mm 3 mps 726 mmHg 54%
    10:00 +31°C° 0 mm 3 mps 726 mmHg 45%
    11:00 +34°C° 0 mm 2 mps 726 mmHg 41%
    12:00 +35°C° 0 mm 2 mps 725 mmHg 37%
    13:00 +36°C° 0 mm 2 mps 725 mmHg 34%
    14:00 +36°C° 0 mm 2 mps 724 mmHg 33%
    15:00 +35°C° 0 mm 1 mps 723 mmHg 32%
    16:00 +35°C° 0 mm 1 mps 723 mmHg 32%
    17:00 +34°C° 0 mm 1 mps 723 mmHg 36%
    18:00 +32°C° 0 mm 1 mps 723 mmHg 40%
    19:00 +30°C° 0 mm 1 mps 724 mmHg 44%
    20:00 +30°C° 0 mm 1 mps 724 mmHg 48%
    21:00 +29°C° 0 mm 1 mps 724 mmHg 52%
    22:00 +28°C° 0 mm 1 mps 724 mmHg 56%
    23:00 +28°C° 0 mm 1 mps 724 mmHg 57%

    Tomorrow, 28 June, Friday

    Time Temperature Precipitation Wind Pressure Humidity
    00:00 +27°C° 0 mm 1 mps 724 mmHg 57%
    01:00 +27°C° 0 mm 1 mps 724 mmHg 58%
    02:00 +26°C° 0 mm 1 mps 724 mmHg 57%
    03:00 +25°C° 0 mm 1 mps 724 mmHg 57%
    04:00 +25°C° 0 mm 1 mps 723 mmHg 56%
    05:00 +25°C° 0 mm 1 mps 724 mmHg 57%
    06:00 +25°C° 0 mm 1 mps 725 mmHg 58%
    07:00 +25°C° 0 mm 1 mps 725 mmHg 59%
    08:00 +27°C° 0 mm 1 mps 726 mmHg 53%
    09:00 +29°C° 0 mm 2 mps 726 mmHg 48%
    10:00 +31°C° 0 mm 2 mps 726 mmHg 43%
    11:00 +33°C° 0 mm 1 mps 726 mmHg 40%
    12:00 +35°C° 0 mm 1 mps 725 mmHg 36%
    13:00 +35°C° 0 mm 0 mps 724 mmHg 33%
    14:00 +35°C° 0 mm 0 mps 724 mmHg 32%
    15:00 +34°C° 0 mm 0 mps 723 mmHg 32%
    16:00 +34°C° 0 mm 0 mps 722 mmHg 32%
    17:00 +34°C° 0 mm 1 mps 722 mmHg 36%
    18:00 +33°C° 0 mm 1 mps 723 mmHg 39%
    19:00 +31°C° 0 mm 1 mps 723 mmHg 43%
    20:00 +30°C° 0 mm 1 mps 723 mmHg 46%
    21:00 +30°C° 0 mm 1 mps 724 mmHg 48%
    22:00 +29°C° 0 mm 1 mps 724 mmHg 50%
    23:00 +29°C° 0 mm 1 mps 724 mmHg 52%

    Day after tomorrow, 29 June, Saturday

    Time Temperature Precipitation Wind Pressure Humidity
    00:00 +28°C° 0 mm 1 mps 724 mmHg 55%
    01:00 +28°C° 0 mm 1 mps 724 mmHg 57%
    02:00 +27°C° 0 mm 1 mps 724 mmHg 59%
    03:00 +27°C° 0 mm 1 mps 724 mmHg 61%
    04:00 +26°C° 0 mm 2 mps 723 mmHg 62%
    05:00 +26°C° 0 mm 2 mps 724 mmHg 62%
    06:00 +26°C° 0 mm 2 mps 724 mmHg 61%
    07:00 +26°C° 0 mm 2 mps 725 mmHg 61%
    08:00 +28°C° 0 mm 2 mps 725 mmHg 56%
    09:00 +30°C° 0 mm 2 mps 726 mmHg 50%
    10:00 +33°C° 0 mm 3 mps 726 mmHg 45%
    11:00 +34°C° 0 mm 2 mps 725 mmHg 41%
    12:00 +36°C° 0 mm 2 mps 725 mmHg 38%
    13:00 +36°C° 0 mm 1 mps 724 mmHg 34%
    14:00 +36°C° 0 mm 1 mps 724 mmHg 35%
    15:00 +35°C° 0 mm 1 mps 723 mmHg 35%
    16:00 +35°C° 0 mm 1 mps 723 mmHg 36%
    17:00 +33°C° 0 mm 1 mps 723 mmHg 41%
    18:00 +32°C° 0 mm 1 mps 723 mmHg 45%
    19:00 +30°C° 0 mm 1 mps 723 mmHg 50%
    20:00 +30°C° 0 mm 1 mps 724 mmHg 53%
    21:00 +29°C° 0 mm 1 mps 724 mmHg 56%
    22:00 +28°C° 0 mm 1 mps 725 mmHg 58%
    23:00 +28°C° 0.1 mm 2 mps 725 mmHg 62%

    30 June, Sunday

    Time Temperature Precipitation Wind Pressure Humidity
    00:00 +28°C° 0.1 mm 2 mps 724 mmHg 65%
    01:00 +27°C° 0.1 mm 3 mps 724 mmHg 69%
    02:00 +26°C° 0.1 mm 2 mps 724 mmHg 70%
    03:00 +26°C° 0.1 mm 2 mps 724 mmHg 72%
    04:00 +25°C° 0.1 mm 2 mps 724 mmHg 74%
    05:00 +25°C° 0 mm 2 mps 725 mmHg 73%
    06:00 +25°C° 0 mm 2 mps 725 mmHg 72%
    07:00 +25°C° 0 mm 2 mps 726 mmHg 71%
    08:00 +27°C° 0 mm 2 mps 726 mmHg 64%
    09:00 +29°C° 0 mm 3 mps 727 mmHg 57%
    10:00 +31°C° 0 mm 3 mps 727 mmHg 51%
    11:00 +32°C° 0 mm 2 mps 726 mmHg 47%
    12:00 +35°C° 0 mm 2 mps 725 mmHg 42%
    13:00 +36°C° 0 mm 2 mps 725 mmHg 38%
    14:00 +35°C° 0 mm 1 mps 724 mmHg 39%
    15:00 +35°C° 0 mm 1 mps 723 mmHg 39%
    16:00 +34°C° 0 mm 1 mps 723 mmHg 40%
    17:00 +33°C° 0 mm 1 mps 723 mmHg 42%
    18:00 +30°C° 0 mm 0 mps 724 mmHg 45%
    19:00 +29°C° 0 mm 0 mps 724 mmHg 47%
    20:00 +28°C° 0.1 mm 0 mps 724 mmHg 50%
    21:00 +29°C° 0.1 mm 1 mps 725 mmHg 54%
    22:00 +28°C° 0.1 mm 1 mps 725 mmHg 57%
    23:00 +28°C° 0 mm 1 mps 725 mmHg 60%

    1 July, Monday

    Time Temperature Precipitation Wind Pressure Humidity
    00:00 +27°C° 0 mm 1 mps 724 mmHg 62%
    01:00 +27°C° 0 mm 1 mps 724 mmHg 64%
    02:00 +27°C° 0 mm 1 mps 724 mmHg 66%
    03:00 +26°C° 0 mm 1 mps 724 mmHg 68%
    04:00 +26°C° 0 mm 1 mps 723 mmHg 70%
    05:00 +26°C° 0 mm 1 mps 724 mmHg 70%
    06:00 +26°C° 0 mm 1 mps 724 mmHg 70%
    07:00 +26°C° 0 mm 2 mps 725 mmHg 69%
    08:00 +28°C° 0 mm 2 mps 725 mmHg 62%
    09:00 +30°C° 0 mm 1 mps 725 mmHg 54%
    10:00 +33°C° 0 mm 1 mps 726 mmHg 46%
    11:00 +35°C° 0 mm 1 mps 725 mmHg 42%
    12:00 +37°C° 0 mm 1 mps 724 mmHg 37%
    13:00 +37°C° 0 mm 0 mps 724 mmHg 32%
    14:00 +36°C° 0 mm 0 mps 723 mmHg 32%
    15:00 +35°C° 0 mm 0 mps 722 mmHg 33%
    16:00 +34°C° 0 mm 0 mps 721 mmHg 33%
    17:00 +35°C° 0 mm 1 mps 722 mmHg 37%
    18:00 +33°C° 0 mm 1 mps 722 mmHg 41%
    19:00 +32°C° 0 mm 1 mps 722 mmHg 44%
    20:00 +31°C° 0.1 mm 1 mps 723 mmHg 48%
    21:00 +30°C° 0.1 mm 1 mps 723 mmHg 52%
    22:00 +30°C° 0.1 mm 1 mps 723 mmHg 56%
    23:00 +29°C° 0.1 mm 1 mps 723 mmHg 58%

    2 July, Tuesday

    Time Temperature Precipitation Wind Pressure Humidity
    00:00 +29°C° 0.1 mm 1 mps 723 mmHg 59%
    01:00 +29°C° 0.1 mm 2 mps 723 mmHg 60%
    02:00 +28°C° 0 mm 2 mps 723 mmHg 64%
    03:00 +27°C° 0 mm 2 mps 723 mmHg 69%
    04:00 +27°C° 0 mm 2 mps 723 mmHg 74%
    05:00 +27°C° 0 mm 2 mps 723 mmHg 73%
    06:00 +27°C° 0 mm 2 mps 723 mmHg 73%
    07:00 +27°C° 0 mm 3 mps 724 mmHg 72%
    08:00 +28°C° 0 mm 3 mps 724 mmHg 65%
    09:00 +30°C° 0 mm 3 mps 724 mmHg 58%
    10:00 +31°C° 0 mm 3 mps 725 mmHg 50%
    11:00 +34°C° 0 mm 3 mps 724 mmHg 47%
    12:00 +35°C° 0 mm 2 mps 723 mmHg 43%
    13:00 +36°C° 0 mm 2 mps 723 mmHg 39%
    14:00 +36°C° 0 mm 2 mps 722 mmHg 41%
    15:00 +35°C° 0 mm 2 mps 722 mmHg 43%
    16:00 +35°C° 0 mm 2 mps 721 mmHg 45%
    17:00 +32°C° 0 mm 2 mps 721 mmHg 49%
    18:00 +31°C° 0 mm 2 mps 722 mmHg 54%
    19:00 +30°C° 0 mm 2 mps 722 mmHg 58%
    20:00 +29°C° 0 mm 2 mps 722 mmHg 60%
    21:00 +29°C° 0 mm 2 mps 723 mmHg 61%
    22:00 +29°C° 0 mm 2 mps 723 mmHg 62%
    23:00 +28°C° 0 mm 2 mps 723 mmHg 65%
    Show more